FW4820 Weather Reports


Display with metric or nautical units.
time (UTC)temp
F
wind
direction
speed
MPH
gust
MPH
rain 1hr
in
rain 24hr
in
rain mn
in
humidity
%
barometer
mb
20260510225016 70 23 1.0 6.0 0.00 0.00 0.00 35 1022.2
20260510224015 70 23 3.0 6.0 0.00 0.00 0.00 35 1022.4
20260510223015 70 23 3.0 5.0 0.00 0.00 0.00 33 1022.4
20260510222015 70 23 3.0 5.0 0.00 0.00 0.00 35 1022.5
20260510221016 70 23 2.0 5.0 0.00 0.00 0.00 36 1022.4
20260510220035 69 23 3.0 7.0 0.00 0.00 0.00 34 1022.3
20260510215015 69 23 6.0 12.0 0.00 0.00 0.00 34 1022.3
20260510214015 69 23 3.0 7.0 0.00 0.00 0.00 35 1022.0
20260510213015 69 23 4.0 8.0 0.00 0.00 0.00 35 1022.2
20260510212015 69 45 5.0 15.0 0.00 0.00 0.00 36 1022.2
20260510211015 69 23 3.0 7.0 0.00 0.00 0.00 35 1022.2
20260510210015 69 45 6.0 12.0 0.00 0.00 0.00 37 1022.3
20260510205015 68 23 3.0 7.0 0.00 0.00 0.00 39 1022.3
20260510204015 68 23 4.0 7.0 0.00 0.00 0.00 37 1022.3
20260510203035 68 68 5.0 10.0 0.00 0.00 0.00 41 1022.6
20260510202015 68 338 3.0 10.0 0.00 0.00 0.00 43 1022.7
20260510201015 68 23 4.0 9.0 0.00 0.00 0.00 40 1022.7
20260510200015 67 68 4.0 6.0 0.00 0.00 0.00 42 1022.9
20260510195015 67 45 4.0 8.0 0.00 0.00 0.00 47 1023.1
20260510194015 66 45 5.0 9.0 0.00 0.00 0.00 41 1023.2
20260510193015 66 23 5.0 9.0 0.00 0.00 0.00 36 1023.2
20260510192015 66 45 5.0 10.0 0.00 0.00 0.00 37 1023.2
20260510191015 66 45 5.0 11.0 0.00 0.00 0.00 38 1023.2
20260510190015 66 315 5.0 8.0 0.00 0.00 0.00 36 1023.3
20260510185055 65 45 4.0 8.0 0.00 0.00 0.00 38 1023.3
20260510184015 65 45 6.0 12.0 0.00 0.00 0.00 40 1023.3
20260510183015 65 23 6.0 10.0 0.00 0.00 0.00 37 1023.4
20260510182017 65 45 3.0 7.0 0.00 0.00 0.00 41 1023.4
20260510181017 65 248 2.0 8.0 0.00 0.00 0.00 44 1023.3
20260510180016 64 45 4.0 8.0 0.00 0.00 0.00 43 1023.4
20260510175015 64 45 3.0 9.0 0.00 0.00 0.00 40 1023.5
20260510174017 63 45 2.0 5.0 0.00 0.00 0.00 44 1023.8
20260510173015 63 45 3.0 7.0 0.00 0.00 0.00 41 1023.7
20260510172037 63 45 4.0 6.0 0.00 0.00 0.00 41 1023.8
20260510171017 63 23 3.0 7.0 0.00 0.00 0.00 43 1023.7
20260510170017 62 23 3.0 7.0 0.00 0.00 0.00 45 1023.7
20260510165037 62 0 4.0 8.0 0.00 0.00 0.00 42 1023.5
20260510164017 62 23 4.0 8.0 0.00 0.00 0.00 41 1023.7
20260510163017 63 0 4.0 8.0 0.00 0.00 0.00 41 1023.7
20260510162037 64 45 4.0 13.0 0.00 0.00 0.00 40 1023.5
20260510161017 62 23 3.0 6.0 0.00 0.00 0.00 46 1023.2
20260510160017 61 45 4.0 9.0 0.00 0.00 0.00 45 1023.2
20260510155017 61 68 5.0 8.0 0.00 0.00 0.00 45 1023.2
20260510154017 60 45 6.0 10.0 0.00 0.00 0.00 43 1023.3
20260510153017 60 45 4.0 12.0 0.00 0.00 0.00 42 1023.2
20260510152018 60 68 2.0 5.0 0.00 0.00 0.00 51 1023.2
20260510151017 59 68 3.0 6.0 0.00 0.00 0.00 48 1023.1
20260510150017 59 23 4.0 8.0 0.00 0.00 0.00 47 1022.7
20260510145017 59 45 2.0 5.0 0.00 0.00 0.00 50 1022.6
20260510144015 58 45 4.0 7.0 0.00 0.00 0.00 51 1022.6
20260510143017 58 45 4.0 7.0 0.00 0.00 0.00 48 1022.7
20260510142017 58 23 5.0 10.0 0.00 0.00 0.00 48 1022.6
20260510141017 58 68 4.0 7.0 0.00 0.00 0.00 50 1022.5
20260510140017 57 45 4.0 7.0 0.00 0.00 0.00 49 1022.5
20260510135017 57 45 4.0 9.0 0.00 0.00 0.00 49 1022.5
20260510134017 57 45 4.0 7.0 0.00 0.00 0.00 50 1022.5
20260510133017 57 45 3.0 5.0 0.00 0.00 0.00 50 1022.2
20260510132037 57 45 3.0 8.0 0.00 0.00 0.00 52 1022.1
20260510131017 57 45 3.0 6.0 0.00 0.00 0.00 52 1022.0
20260510130017 56 45 3.0 7.0 0.00 0.00 0.00 52 1022.0
20260510125017 57 45 5.0 11.0 0.00 0.00 0.00 53 1021.7
20260510124017 56 23 4.0 12.0 0.00 0.00 0.00 54 1021.8
20260510123017 56 23 4.0 9.0 0.00 0.00 0.00 54 1021.7
20260510122017 56 0 3.0 6.0 0.00 0.00 0.00 54 1021.3
20260510121017 55 23 3.0 6.0 0.00 0.00 0.00 55 1021.0
20260510120017 55 23 2.0 5.0 0.00 0.00 0.00 57 1020.7
20260510115017 55 45 1.0 4.0 0.00 0.00 0.00 57 1020.6
20260510114017 55 23 1.0 3.0 0.00 0.00 0.00 57 1020.3
20260510113017 55 23 2.0 5.0 0.00 0.00 0.00 57 1019.9
20260510112017 55 23 3.0 5.0 0.00 0.00 0.00 57 1019.9
20260510111017 56 23 4.0 8.0 0.00 0.00 0.00 58 1020.0
20260510110016 56 0 4.0 9.0 0.00 0.00 0.00 58 1019.7
20260510105016 57 23 4.0 8.0 0.00 0.00 0.00 59 1019.7
20260510104037 57 23 4.0 9.0 0.00 0.00 0.00 57 1019.3
20260510103017 58 0 4.0 9.0 0.00 0.00 0.00 55 1019.4
20260510102017 58 23 4.0 7.0 0.00 0.00 0.00 52 1019.5
20260510101016 59 45 4.0 8.0 0.00 0.00 0.00 52 1019.0
20260510100017 59 23 4.0 10.0 0.00 0.00 0.00 52 1019.2
20260510095016 59 23 2.0 6.0 0.00 0.00 0.00 54 1019.1
20260510094017 59 23 4.0 10.0 0.00 0.00 0.00 54 1018.8
20260510093016 59 45 4.0 8.0 0.00 0.00 0.00 55 1018.8
20260510092036 59 45 4.0 7.0 0.00 0.00 0.00 59 1018.5
20260510091017 59 23 3.0 8.0 0.00 0.00 0.00 62 1018.6
20260510090036 58 0 3.0 7.0 0.00 0.00 0.00 65 1018.4
20260510085036 58 23 3.0 7.0 0.00 0.00 0.00 67 1018.2
20260510084016 58 23 3.0 6.0 0.00 0.00 0.00 71 1018.0
20260510083017 58 0 2.0 5.0 0.00 0.00 0.00 73 1017.7
20260510082016 59 0 2.0 4.0 0.00 0.00 0.00 74 1017.8
20260510081016 59 23 1.0 5.0 0.00 0.00 0.00 73 1017.6
20260510080016 59 23 2.0 5.0 0.00 0.00 0.00 71 1017.5
20260510075018 59 23 2.0 4.0 0.00 0.00 0.00 71 1017.3
20260510074017 59 0 2.0 5.0 0.00 0.00 0.00 71 1017.2
20260510073016 59 23 1.0 4.0 0.00 0.00 0.00 71 1017.1
20260510072036 60 0.0 2.0 0.00 0.00 0.00 71 1017.0
20260510071016 60 23 2.0 4.0 0.00 0.00 0.00 70 1017.1
20260510070016 60 0.0 2.0 0.00 0.00 0.00 70 1017.0
20260510065016 60 0.0 2.0 0.00 0.00 0.00 69 1017.1
20260510064016 61 0.0 1.0 0.00 0.00 0.00 68 1016.8
20260510063016 61 0.0 3.0 0.00 0.00 0.00 67 1016.7
20260510062036 61 0.0 2.0 0.00 0.00 0.00 66 1016.5
20260510061016 62 0.0 0.0 0.00 0.00 0.00 66 1016.3
20260510060016 62 0.0 0.0 0.00 0.00 0.00 66 1016.3
20260510055016 63 338 1.0 3.0 0.00 0.00 0.00 66 1016.4
20260510054016 63 0.0 0.0 0.00 0.00 0.00 64 1016.4
20260510053016 64 0.0 1.0 0.00 0.00 0.00 63 1016.5
20260510052016 64 0.0 3.0 0.00 0.00 0.00 61 1016.4
20260510051016 65 0.0 1.0 0.00 0.00 0.00 61 1016.1
20260510050036 65 338 1.0 3.0 0.00 0.00 0.00 60 1015.9
20260510045015 65 0 1.0 3.0 0.00 0.00 0.00 59 1015.6
20260510044015 66 0 2.0 5.0 0.00 0.00 0.00 59 1015.5
20260510043015 66 338 1.0 3.0 0.00 0.00 0.00 58 1015.4
20260510042015 67 315 1.0 3.0 0.00 0.00 0.00 58 1015.2
20260510041015 67 315 1.0 3.0 0.00 0.00 0.00 58 1015.0
20260510040015 67 338 1.0 3.0 0.00 0.00 0.00 59 1014.8
20260510035035 66 0.0 1.0 0.00 0.00 0.00 59 1014.7
20260510034035 67 0.0 0.0 0.00 0.00 0.00 59 1014.3
20260510033015 67 0.0 1.0 0.00 0.00 0.00 59 1014.0
20260510032035 67 0.0 0.0 0.00 0.00 0.00 58 1013.8
20260510031015 68 0.0 1.0 0.00 0.00 0.00 57 1013.8
20260510030015 68 0.0 1.0 0.00 0.00 0.00 56 1013.5
20260510025015 68 0.0 1.0 0.00 0.00 0.00 56 1013.2
20260510024015 69 0.0 0.0 0.00 0.00 0.00 55 1013.1
20260510023015 70 0.0 1.0 0.00 0.00 0.00 54 1012.9
20260510022015 70 0.0 3.0 0.00 0.00 0.00 52 1012.7
20260510021015 70 0 1.0 3.0 0.00 0.00 0.00 51 1012.6
20260510020015 71 45 2.0 6.0 0.00 0.00 0.00 50 1012.6
20260510015015 72 23 4.0 9.0 0.00 0.00 0.00 49 1012.6
20260510014015 72 23 4.0 10.0 0.00 0.00 0.00 49 1012.1
20260510013015 72 23 3.0 9.0 0.00 0.00 0.00 50 1011.8
20260510012015 73 23 3.0 6.0 0.00 0.00 0.00 49 1011.6
20260510011015 73 23 4.0 9.0 0.00 0.00 0.00 47 1011.5
20260510010017 74 0 3.0 8.0 0.00 0.00 0.00 47 1011.4
20260510005015 74 0 2.0 5.0 0.00 0.00 0.00 49 1011.4
20260510004035 74 45 1.0 4.0 0.00 0.00 0.00 48 1011.0
20260510003017 75 315 3.0 6.0 0.00 0.00 0.00 46 1010.8
20260510002017 76 23 5.0 15.0 0.00 0.00 0.00 45 1010.5
20260510001017 76 338 3.0 10.0 0.00 0.00 0.00 45 1010.5
20260510000017 77 0 4.0 9.0 0.00 0.00 0.00 45 1010.5
20260509235017 78 338 4.0 10.0 0.00 0.00 0.00 44 1010.2
20260509234017 78 315 5.0 11.0 0.00 0.00 0.00 43 1010.1
20260509233017 78 315 5.0 11.0 0.00 0.00 0.00 41 1010.0
20260509232017 79 315 2.0 6.0 0.00 0.00 0.00 43 1010.1
20260509231017 80 315 1.0 5.0 0.00 0.00 0.00 41 1010.1
20260509230017 79 315 2.0 7.0 0.00 0.00 0.00 43 1009.8